[[{"header":{"parameterUnit":"m.s-1","parameterCategory":1,"la1":30.2991,"la2":30.254,"lo1":-89.0895,"lo2":-89.0444,"dy":0.0017,"dx":0.0017,"nx":28,"ny":28,"refTime":"2023-03-13T21:00:00:Z","depth":0,"parameterNumber":2,"parameterNumberName":"U-component_of_WINDS"},"data":[0,0,0,0,0,0,0,0,0,0,0,0,0,0,0,0,0,0,0,0,0,0,0,0,0,0,0,0,0,0,0,0,0,0,0,0,0,0,0,0,0,0,0,0,0,0,0,0,0,0,0,0,0,0,0,0,0,0,-0.8328,-0.8327,0,-0.8311,-0.8311,-0.831,-0.8277,-0.8277,-0.8276,-0.8275,-0.8259,-0.8259,-0.8259,0,0,0,0,0,0,0,0,0,0,0,0,0,-0.8331,-0.8331,-0.8328,-0.8327,-0.8327,-0.8311,-0.8311,-0.831,-0.8277,-0.8277,-0.8276,-0.8275,-0.8259,-0.8259,-0.8259,0,0,0,0,0,0,0,0,0,0,0,0,0,-0.8323,-0.8331,-0.8328,-0.8309,-0.8307,-0.8311,-0.8311,-0.831,-0.8278,-0.8277,-0.8276,-0.8275,-0.8259,-0.8259,-0.8259,-0.8281,0,0,-0.826,-0.826,0,0,0,0,0,0,0,0,-0.8324,-0.8323,-0.8312,-0.831,-0.8308,-0.8295,-0.8306,-0.83,-0.8278,-0.8289,-0.8275,-0.8274,-0.8272,-0.8271,-0.827,-0.828,-0.8279,-0.826,-0.826,-0.826,-0.8261,0,0,0,0,0,0,0,-0.8324,-0.8324,-0.8321,-0.8311,-0.8309,-0.8301,-0.8299,-0.8305,-0.8286,-0.8288,-0.8285,-0.8284,-0.8271,-0.827,-0.8269,-0.8279,-0.826,-0.826,-0.8261,-0.8261,-0.8305,-0.8306,0,0,0,0,0,0,-0.8327,-0.8324,-0.8321,-0.832,-0.8313,-0.8302,-0.8299,-0.83,-0.8286,-0.8283,-0.8284,-0.8282,-0.827,-0.8269,-0.8269,-0.8293,-0.826,-0.8261,-0.8261,-0.8304,-0.8306,-0.8307,0,0,0,0,0,0,-0.8328,-0.8328,-0.8322,-0.8322,-0.832,-0.8303,-0.8304,-0.83,-0.83,-0.8283,-0.828,-0.8287,-0.8269,-0.8268,-0.8278,-0.8292,-0.8261,-0.8261,-0.8303,-0.8305,-0.8306,-0.8342,0,0,0,0,0,0,-0.8328,-0.8328,-0.8336,-0.8322,-0.8321,-0.8332,-0.8305,-0.8301,-0.83,-0.8297,-0.8285,-0.8282,-0.8268,-0.8278,-0.8278,-0.8292,-0.8261,-0.8302,-0.8304,-0.8306,-0.8339,-0.8344,-0.8349,0,0,0,0,0,-0.8328,-0.8347,-0.8337,-0.8336,-0.833,-0.8333,-0.8332,-0.8315,-0.8301,-0.8309,-0.8299,-0.8283,-0.829,-0.8279,-0.8279,-0.8293,-0.8301,-0.8303,-0.8306,-0.8337,-0.8344,-0.8349,0,0,0,0,0,0,-0.8363,-0.8345,-0.8333,-0.8348,-0.8342,-0.8327,-0.8337,-0.8322,-0.8321,-0.8318,-0.8297,-0.8295,-0.8307,-0.8301,-0.8289,-0.8313,-0.8293,-0.8295,-0.8317,-0.8323,-0.8327,-0.8329,-0.8262,0,0,0,0,0,-0.8373,-0.8376,-0.836,-0.8374,-0.8372,-0.8355,-0.8355,-0.8343,-0.8336,-0.8334,-0.8324,-0.8318,-0.8319,-0.832,-0.832,-0.8338,-0.8335,-0.8347,-0.8352,-0.8356,-0.8359,-0.8368,-0.8373,-0.8314,-0.8314,-0.8314,0,0,-0.8393,-0.8383,-0.8386,-0.8381,-0.8375,-0.8379,-0.8353,-0.8359,-0.8362,-0.8335,-0.8343,-0.8336,-0.8328,-0.8341,-0.8347,-0.8337,-0.8374,-0.8359,-0.8362,-0.8363,-0.8371,-0.8376,-0.8381,-0.8316,-0.8316,-0.8315,0,0,-0.8431,-0.8424,-0.8435,-0.8429,-0.842,-0.8409,-0.8411,-0.8398,-0.8392,-0.84,-0.838,-0.8383,-0.8385,-0.838,-0.8378,-0.8413,-0.8398,-0.8413,-0.8438,-0.8447,-0.8452,-0.8456,-0.8469,-0.8474,-0.8416,-0.8416,-0.8416,0,-0.8457,-0.8462,-0.8443,-0.845,-0.8448,-0.8423,-0.8434,-0.8429,-0.8421,-0.8421,-0.8409,-0.8411,-0.8403,-0.8416,-0.8424,-0.8423,-0.8426,-0.8415,-0.8453,-0.8457,-0.846,-0.8472,-0.8477,-0.8418,-0.8418,-0.8418,-0.8417,0,-0.8495,-0.8498,-0.8509,-0.8501,-0.85,-0.8509,-0.8491,-0.8493,-0.848,-0.8469,-0.8478,-0.8468,-0.8466,-0.8467,-0.8455,-0.8478,-0.8471,-0.8456,-0.8436,-0.8468,-0.8479,-0.8484,-0.8421,-0.842,-0.842,-0.8419,0,0,-0.8556,-0.8537,-0.8541,-0.8537,-0.8524,-0.8527,-0.8535,-0.8532,-0.8534,-0.8528,-0.8534,-0.8536,-0.8522,-0.8519,-0.8506,-0.8514,-0.8542,-0.8498,-0.8497,-0.8507,-0.8567,-0.858,-0.8585,-0.8532,-0.8533,-0.8533,-0.8568,0,-0.8593,-0.8605,-0.8587,-0.8603,-0.8606,-0.8582,-0.8588,-0.8581,-0.8571,-0.8573,-0.8561,-0.8563,-0.8544,-0.8542,-0.8549,-0.8538,-0.8554,-0.8535,-0.8538,-0.8538,-0.8542,-0.8591,-0.8604,-0.8638,-0.8572,-0.8573,-0.8574,0,-0.8637,-0.8634,-0.865,-0.8636,-0.8637,-0.8643,-0.8639,-0.864,-0.8631,-0.8623,-0.862,-0.8604,-0.861,-0.8589,-0.8598,-0.8585,-0.8585,-0.858,-0.858,-0.8581,-0.8559,-0.8594,-0.8648,-0.8653,-0.858,-0.858,-0.8579,0,-0.8682,-0.8681,-0.869,-0.8687,-0.8671,-0.8676,-0.8669,-0.866,-0.8659,-0.8655,-0.8654,-0.8651,-0.865,-0.8648,-0.8631,-0.8617,-0.8642,-0.862,-0.8636,-0.8637,-0.8644,-0.8644,-0.8699,-0.8642,-0.8641,-0.8641,-0.8641,0,-0.8725,-0.8736,-0.871,-0.8716,-0.8728,-0.8707,-0.8719,-0.871,-0.8701,-0.8705,-0.8683,-0.8687,-0.8664,-0.8666,-0.8652,-0.8662,-0.8661,-0.8655,-0.8652,-0.8658,-0.8659,-0.8659,-0.8656,-0.8643,-0.8642,-0.8642,-0.8642,0,-0.8777,-0.876,-0.8769,-0.8752,-0.8748,-0.8758,-0.8743,-0.8748,-0.8736,-0.8741,-0.8741,-0.8723,-0.8723,-0.8706,-0.8703,-0.8694,-0.871,-0.8702,-0.8713,-0.8711,-0.8728,-0.8727,-0.8787,-0.8794,-0.8731,-0.8732,-0.8732,0,-0.8807,-0.8815,-0.8798,-0.8799,-0.8794,-0.8795,-0.8794,-0.8773,-0.8773,-0.8763,-0.8769,-0.8768,-0.8766,-0.8768,-0.8754,-0.8752,-0.8744,-0.8765,-0.8744,-0.875,-0.8746,-0.8746,-0.8747,-0.877,-0.8771,-0.8772,-0.8772,0,-0.8861,-0.8852,-0.8851,-0.8847,-0.8846,-0.8842,-0.8836,-0.8838,-0.8815,-0.8816,-0.8816,-0.8814,-0.8811,-0.881,-0.8805,-0.8798,-0.8782,-0.8779,-0.8783,-0.879,-0.8796,-0.8794,-0.8726,-0.8778,-0.8777,-0.8777,-0.8777,-0.8776,-0.8903,-0.8909,-0.8899,-0.8898,-0.8892,-0.8887,-0.889,-0.8878,-0.8878,-0.8874,-0.8861,-0.8863,-0.8854,-0.8845,-0.8839,-0.8841,-0.8831,-0.8836,-0.8838,-0.884,-0.8843,-0.8795,-0.884,-0.8839,-0.8839,-0.8839,-0.8839,0,-0.8957,-0.8949,-0.8949,-0.8941,-0.8941,-0.8924,-0.8917,-0.8918,-0.892,-0.8912,-0.891,-0.891,-0.8909,-0.8894,-0.8891,-0.8895,-0.8888,-0.8895,-0.8896,-0.8894,-0.8852,-0.885,-0.8902,-0.8902,-0.8902,-0.8902,-0.8902,-0.8902,-0.8986,-0.8995,-0.8984,-0.8989,-0.8981,-0.8983,-0.898,-0.8975,-0.8969,-0.897,-0.8968,-0.8959,-0.8948,-0.8944,-0.8942,-0.8938,-0.8938,-0.8949,-0.8942,-0.8903,-0.8897,-0.8892,-0.8889,-0.8949,-0.8949,-0.8984,-0.8985,-0.8985]},{"header":{"parameterUnit":"m.s-1","parameterCategory":1,"la1":30.2991,"la2":30.254,"lo1":-89.0895,"lo2":-89.0444,"dy":0.0017,"dx":0.0017,"nx":28,"ny":28,"refTime":"2023-03-13T21:00:00:Z","depth":0,"parameterNumber":3,"parameterNumberName":"V-component_of_WINDS"},"data":[0,0,0,0,0,0,0,0,0,0,0,0,0,0,0,0,0,0,0,0,0,0,0,0,0,0,0,0,0,0,0,0,0,0,0,0,0,0,0,0,0,0,0,0,0,0,0,0,0,0,0,0,0,0,0,0,0,0,-3.9766,-3.9766,0,-3.9798,-3.9798,-3.9799,-3.9783,-3.9783,-3.9782,-3.9781,-3.981,-3.9812,-3.9813,0,0,0,0,0,0,0,0,0,0,0,0,0,-3.9689,-3.969,-3.9766,-3.9766,-3.9767,-3.9798,-3.9798,-3.9799,-3.9783,-3.9782,-3.9781,-3.9781,-3.981,-3.9811,-3.9813,0,0,0,0,0,0,0,0,0,0,0,0,0,-3.9722,-3.9691,-3.9766,-3.9763,-3.9763,-3.9798,-3.9798,-3.9799,-3.9784,-3.9782,-3.9781,-3.978,-3.9809,-3.9811,-3.9814,-3.9852,0,0,-3.9821,-3.9822,0,0,0,0,0,0,0,0,-3.972,-3.9724,-3.9763,-3.9763,-3.9763,-3.9786,-3.9782,-3.9817,-3.9784,-3.9776,-3.9781,-3.9779,-3.9803,-3.9805,-3.9814,-3.9854,-3.9855,-3.9821,-3.9822,-3.9823,-3.9824,0,0,0,0,0,0,0,-3.9717,-3.9723,-3.9779,-3.9764,-3.9764,-3.9759,-3.9762,-3.9788,-3.9795,-3.9776,-3.9775,-3.978,-3.9803,-3.9812,-3.9815,-3.9855,-3.9821,-3.9823,-3.9824,-3.9825,-3.993,-3.9931,0,0,0,0,0,0,-3.9716,-3.9721,-3.9778,-3.978,-3.9738,-3.9762,-3.9765,-3.978,-3.9795,-3.9797,-3.9781,-3.9779,-3.9809,-3.9812,-3.9816,-3.9864,-3.9823,-3.9825,-3.9827,-3.9928,-3.993,-3.9932,0,0,0,0,0,0,-3.9714,-3.9721,-3.9776,-3.975,-3.9757,-3.9764,-3.978,-3.9781,-3.979,-3.9798,-3.9799,-3.9789,-3.9808,-3.9812,-3.9844,-3.9864,-3.9826,-3.9828,-3.9927,-3.9929,-3.9931,-3.9959,0,0,0,0,0,0,-3.9712,-3.972,-3.9736,-3.9751,-3.9758,-3.9805,-3.9782,-3.9782,-3.9795,-3.9793,-3.9807,-3.9808,-3.9807,-3.9841,-3.9846,-3.9867,-3.983,-3.9925,-3.9928,-3.993,-3.9956,-3.9961,-3.9966,0,0,0,0,0,-3.9709,-3.9741,-3.9737,-3.9743,-3.9778,-3.9806,-3.981,-3.981,-3.9796,-3.9812,-3.9817,-3.9807,-3.9861,-3.9844,-3.985,-3.9872,-3.9924,-3.9927,-3.993,-3.9954,-3.996,-3.9966,0,0,0,0,0,0,-3.9727,-3.9743,-3.9738,-3.9776,-3.979,-3.9803,-3.9823,-3.9817,-3.9834,-3.9831,-3.9829,-3.9832,-3.9865,-3.9871,-3.9852,-3.9911,-3.989,-3.9895,-3.9906,-3.9912,-3.9917,-3.9916,-3.9832,0,0,0,0,0,-3.9735,-3.9758,-3.977,-3.9802,-3.981,-3.9815,-3.9827,-3.9826,-3.984,-3.9846,-3.9853,-3.9866,-3.9886,-3.9899,-3.9918,-3.9956,-3.996,-3.9974,-3.9979,-3.9983,-3.9988,-4.001,-4.0017,-3.9942,-3.9942,-3.9942,0,0,-3.9752,-3.9764,-3.9778,-3.9806,-3.9817,-3.984,-3.982,-3.9845,-3.9862,-3.9849,-3.988,-3.9886,-3.99,-3.9936,-3.9952,-3.9942,-4.0009,-3.9987,-3.9991,-3.9993,-4.0014,-4.0021,-4.0028,-3.9944,-3.9944,-3.9943,0,0,-3.9796,-3.9807,-3.9836,-3.9848,-3.9865,-3.9868,-3.9875,-3.989,-3.9894,-3.9926,-3.9917,-3.9937,-3.997,-3.9982,-3.9992,-4.0042,-4.0034,-4.0047,-4.0074,-4.0096,-4.0102,-4.0107,-4.0127,-4.0134,-4.0051,-4.0051,-4.0051,0,-3.9815,-3.9851,-3.9851,-3.9878,-3.9891,-3.9881,-3.9911,-3.9921,-3.9943,-3.9952,-3.994,-3.9984,-3.9993,-4.0032,-4.0045,-4.0052,-4.0061,-4.0046,-4.0102,-4.0107,-4.0112,-4.013,-4.0137,-4.0053,-4.0053,-4.0053,-4.0053,0,-3.9874,-3.9899,-3.992,-3.9944,-3.9959,-3.9987,-3.9991,-4.0006,-4.0003,-4.0008,-4.004,-4.0051,-4.0072,-4.0081,-4.0078,-4.012,-4.0114,-4.0102,-4.0081,-4.0121,-4.0138,-4.0145,-4.0056,-4.0055,-4.0054,-4.0054,0,0,-3.993,-3.9955,-3.9963,-3.9974,-3.9993,-4.0012,-4.0039,-4.0062,-4.0075,-4.009,-4.0114,-4.0143,-4.0133,-4.0145,-4.0143,-4.0162,-4.0203,-4.0148,-4.0148,-4.0159,-4.0252,-4.0262,-4.027,-4.0197,-4.0198,-4.0199,-4.0251,0,-3.9977,-4.0027,-4.0028,-4.0073,-4.0097,-4.0089,-4.0113,-4.0126,-4.0131,-4.0152,-4.0156,-4.0178,-4.0162,-4.017,-4.0188,-4.0194,-4.0221,-4.019,-4.0219,-4.022,-4.0217,-4.0279,-4.0289,-4.0337,-4.0257,-4.0259,-4.0259,0,-4.0038,-4.0058,-4.0106,-4.0124,-4.0133,-4.0155,-4.0177,-4.0196,-4.0211,-4.0214,-4.0228,-4.0223,-4.0251,-4.0229,-4.0267,-4.0245,-4.0257,-4.0262,-4.0264,-4.0268,-4.0243,-4.0286,-4.0353,-4.0361,-4.027,-4.0269,-4.0268,0,-4.0077,-4.0115,-4.0149,-4.0159,-4.0179,-4.0195,-4.0204,-4.0218,-4.0232,-4.0251,-4.026,-4.028,-4.0292,-4.0308,-4.0309,-4.0292,-4.0348,-4.0325,-4.0351,-4.0351,-4.0364,-4.0364,-4.0436,-4.0369,-4.0369,-4.0369,-4.0369,0,-4.013,-4.016,-4.0167,-4.0189,-4.0222,-4.0223,-4.0256,-4.0263,-4.0277,-4.0299,-4.0292,-4.0313,-4.0312,-4.0333,-4.0334,-4.0366,-4.0371,-4.0374,-4.0374,-4.0376,-4.0376,-4.0384,-4.0382,-4.0371,-4.037,-4.037,-4.037,0,-4.0179,-4.0185,-4.0222,-4.0239,-4.0244,-4.0268,-4.0282,-4.0302,-4.0307,-4.0336,-4.0342,-4.0349,-4.0374,-4.0376,-4.0404,-4.0404,-4.0444,-4.044,-4.044,-4.044,-4.0466,-4.0464,-4.0548,-4.0559,-4.0483,-4.0484,-4.0485,0,-4.0213,-4.0237,-4.0257,-4.0272,-4.0283,-4.0307,-4.0322,-4.0323,-4.0339,-4.0359,-4.0377,-4.0401,-4.0421,-4.046,-4.0468,-4.0489,-4.0486,-4.0514,-4.0489,-4.0491,-4.0489,-4.0488,-4.0491,-4.0519,-4.052,-4.0521,-4.0521,0,-4.0274,-4.0276,-4.0299,-4.0323,-4.0342,-4.036,-4.0378,-4.039,-4.0394,-4.0412,-4.0438,-4.0453,-4.0483,-4.0507,-4.0529,-4.0537,-4.053,-4.0529,-4.0536,-4.0539,-4.0539,-4.0541,-4.0455,-4.0527,-4.0526,-4.0526,-4.0526,-4.0525,-4.0318,-4.0339,-4.0358,-4.0384,-4.0397,-4.0414,-4.0435,-4.0443,-4.0465,-4.0491,-4.0489,-4.0519,-4.0534,-4.0563,-4.0572,-4.0595,-4.0585,-4.0596,-4.0599,-4.0602,-4.0605,-4.0534,-4.0598,-4.0598,-4.0598,-4.0598,-4.0598,0,-4.038,-4.0392,-4.0416,-4.0442,-4.0462,-4.0455,-4.0474,-4.0492,-4.0518,-4.0534,-4.0554,-4.0584,-4.0608,-4.0618,-4.0641,-4.0657,-4.0654,-4.0663,-4.0663,-4.0665,-4.0611,-4.0604,-4.0665,-4.0665,-4.0665,-4.0665,-4.0665,-4.0665,-4.0415,-4.0452,-4.0457,-4.05,-4.0511,-4.0541,-4.0553,-4.0568,-4.0581,-4.0616,-4.0637,-4.0643,-4.0656,-4.0681,-4.0702,-4.0704,-4.0714,-4.0725,-4.0725,-4.0675,-4.0669,-4.0662,-4.0655,-4.0726,-4.0726,-4.0778,-4.0778,-4.0779]}]]